{"data":{"norad_id":69802,"epoch":"2026-09-19T20:59:57.060672Z","epoch_age_seconds":75660,"freshness":"FRESH","line1":"1 69802U 26153C   26262.87496598 -.01784701  00000+0 -12284+1 0  9992","line2":"2 69802  88.9973 351.5313 0010759 335.7645  24.3028 14.03597517 10964","mean_motion":14.03597517,"eccentricity":0.0010759,"inclination_deg":88.9973,"raan_deg":351.5313,"arg_perigee_deg":335.7645,"mean_anomaly_deg":24.3028,"bstar":-1.2284,"rev_number":1096,"period_min":102.59351292369,"perigee_km":873.55368776457,"apogee_km":889.17468241465,"semimajor_km":7259.5011850896,"source":"CELESTRAK","updated_at":"2026-09-20T09:00:25.119320Z"}}